User: anonymous
Location: Raven Hill Discovery Center
(45.1336°N, 85.0553°W)
Time: 01:36:09
(UTC-04:00)
Language:

Cosmos 1470 - Orbit

View from above orbital plane
View from above orbital plane
View from above satellite
View from above satellite

Ground track
Ground track

The orbit data is extracted from the following two-line orbital elements,

1 14147U 83061A   14202.83350151  .00001420  00000-0  93081-4 0   342
2 14147 082.5074 358.2228 0013182 334.5033 025.5543 15.06900144444715
Epoch (UTC): 21 July 2014 20:00:14
Eccentricity: 0.0013182
inclination: 82.5074°
perigee height: 536 km
apogee height: 555 km
right ascension of ascending node: 358.2228°
argument of perigee: 334.5033°
revolutions per day: 15.06900144
mean anomaly at epoch: 25.5543°
orbit number at epoch: 44471

The dashed part of the orbit path shows where the satellite is in the earth's shadow,  

DLR